Terminal Aerodrome Forecast
Issued by NWS

Home | Current Version | Previous Version | Text Only | Print | Product List | Glossary On
Versions: 1 2 3 4 5 6 7 8 9 10 11 12 13 14 15 16 17 18
000
FTUS43 KDLH 240701 AAB
TAFBRD
TAF AMD
KBRD 240701Z 2407/2506 VRB03KT P6SM SKC
     FM240900 24005KT P6SM SCT013
      TEMPO 2409/2411 5SM BR SCT006 BKN013
     FM241500 29012G19KT P6SM SCT025
     FM250100 29005KT P6SM SCT250=

USA.gov is the U.S. government's official web portal to all federal, state and local government web resources and services.